[[{"header":{"parameterUnit":"m.s-1","parameterCategory":1,"la1":30.2991,"la2":30.254,"lo1":-89.0895,"lo2":-89.0444,"dy":0.0017,"dx":0.0017,"nx":28,"ny":28,"refTime":"2023-09-24T09:00:00:Z","depth":0,"parameterNumber":2,"parameterNumberName":"U-component_of_WINDS"},"data":[0,0,0,0,0,0,0,0,0,0,0,0,0,0,0,0,0,0,0,0,0,0,0,0,0,0,0,0,0,0,0,0,0,0,0,0,0,0,0,0,0,0,0,0,0,0,0,0,0,0,0,0,0,0,0,0,0,0,-1.845,-1.845,0,-1.8425,-1.8425,-1.8424,-1.8361,-1.8359,-1.8358,-1.8357,-1.8333,-1.8334,-1.8334,0,0,0,0,0,0,0,0,0,0,0,0,0,-1.8444,-1.8445,-1.845,-1.845,-1.8449,-1.8425,-1.8425,-1.8424,-1.8361,-1.8359,-1.8358,-1.8356,-1.8333,-1.8334,-1.8335,0,0,0,0,0,0,0,0,0,0,0,0,0,-1.8436,-1.8445,-1.845,-1.8415,-1.8411,-1.8425,-1.8425,-1.8424,-1.8361,-1.8359,-1.8357,-1.8355,-1.8333,-1.8334,-1.8335,-1.8381,0,0,-1.8338,-1.8338,0,0,0,0,0,0,0,0,-1.8436,-1.8436,-1.842,-1.8417,-1.8413,-1.8394,-1.8414,-1.841,-1.8362,-1.838,-1.8357,-1.8354,-1.8355,-1.8354,-1.8354,-1.838,-1.8379,-1.8338,-1.8338,-1.8339,-1.8339,0,0,0,0,0,0,0,-1.8437,-1.8437,-1.844,-1.842,-1.8416,-1.8401,-1.8397,-1.8413,-1.838,-1.8379,-1.8374,-1.8372,-1.8353,-1.8353,-1.8353,-1.8379,-1.8338,-1.8338,-1.8339,-1.8339,-1.8442,-1.8444,0,0,0,0,0,0,-1.8442,-1.8438,-1.8441,-1.8439,-1.842,-1.8402,-1.8399,-1.8402,-1.8379,-1.8374,-1.8374,-1.8369,-1.8353,-1.8352,-1.8352,-1.8404,-1.8339,-1.834,-1.834,-1.844,-1.8442,-1.8444,0,0,0,0,0,0,-1.8443,-1.8443,-1.8442,-1.8437,-1.8436,-1.8405,-1.8409,-1.8403,-1.8403,-1.8375,-1.8369,-1.838,-1.8351,-1.8351,-1.8374,-1.8403,-1.834,-1.8341,-1.8437,-1.844,-1.8443,-1.851,0,0,0,0,0,0,-1.8443,-1.8444,-1.8461,-1.8438,-1.8436,-1.8464,-1.8411,-1.8404,-1.8405,-1.8398,-1.838,-1.8375,-1.8349,-1.8373,-1.8375,-1.8403,-1.8342,-1.8434,-1.8438,-1.8442,-1.8506,-1.8516,-1.8524,0,0,0,0,0,-1.8443,-1.8481,-1.8462,-1.8463,-1.8457,-1.8466,-1.8465,-1.8435,-1.8407,-1.8424,-1.8406,-1.8375,-1.84,-1.8376,-1.8378,-1.8406,-1.8432,-1.8437,-1.8442,-1.8501,-1.8514,-1.8524,0,0,0,0,0,0,-1.8508,-1.8477,-1.8456,-1.8488,-1.848,-1.8455,-1.8476,-1.8449,-1.8449,-1.8443,-1.8406,-1.8402,-1.8431,-1.8421,-1.8396,-1.845,-1.8411,-1.8416,-1.8455,-1.8467,-1.8476,-1.8478,-1.8342,0,0,0,0,0,-1.8527,-1.8536,-1.8509,-1.854,-1.8537,-1.8507,-1.851,-1.8487,-1.8478,-1.8474,-1.8458,-1.8451,-1.8457,-1.8461,-1.8465,-1.8504,-1.8499,-1.8525,-1.8534,-1.8542,-1.8547,-1.8566,-1.8577,-1.846,-1.846,-1.846,0,0,-1.8564,-1.8549,-1.8557,-1.8553,-1.8544,-1.8555,-1.8505,-1.8519,-1.8527,-1.8477,-1.8497,-1.8486,-1.8475,-1.8506,-1.8519,-1.8499,-1.8578,-1.8548,-1.8554,-1.8555,-1.8572,-1.8584,-1.8593,-1.8464,-1.8463,-1.8462,0,0,-1.8639,-1.8628,-1.8652,-1.8644,-1.8631,-1.8611,-1.8617,-1.8597,-1.8587,-1.8607,-1.857,-1.8579,-1.859,-1.8584,-1.8582,-1.8654,-1.8626,-1.8657,-1.8705,-1.8725,-1.8734,-1.8742,-1.8767,-1.8777,-1.8662,-1.8662,-1.8662,0,-1.8687,-1.8702,-1.8668,-1.8684,-1.8683,-1.8638,-1.8663,-1.8657,-1.8647,-1.8647,-1.8625,-1.8637,-1.8627,-1.8656,-1.8674,-1.8674,-1.868,-1.8658,-1.8735,-1.8743,-1.875,-1.8774,-1.8784,-1.8666,-1.8666,-1.8665,-1.8665,0,-1.8762,-1.8773,-1.8794,-1.8784,-1.8786,-1.8806,-1.8776,-1.8782,-1.876,-1.8743,-1.8764,-1.875,-1.875,-1.8756,-1.8734,-1.8782,-1.877,-1.8742,-1.8701,-1.8765,-1.8787,-1.8796,-1.8671,-1.867,-1.8669,-1.8668,0,0,-1.8876,-1.8848,-1.8856,-1.8851,-1.8833,-1.8841,-1.886,-1.886,-1.8865,-1.886,-1.8875,-1.8885,-1.8859,-1.8857,-1.8835,-1.8852,-1.891,-1.8822,-1.8821,-1.8838,-1.8961,-1.8982,-1.8993,-1.8891,-1.8892,-1.8894,-1.8962,0,-1.8946,-1.8975,-1.8945,-1.8981,-1.899,-1.8948,-1.8964,-1.8956,-1.894,-1.8946,-1.893,-1.8937,-1.8903,-1.8901,-1.8917,-1.8899,-1.8934,-1.8894,-1.8904,-1.8905,-1.8908,-1.9004,-1.9026,-1.9091,-1.897,-1.8972,-1.8973,0,-1.903,-1.9028,-1.9064,-1.9044,-1.9047,-1.9062,-1.9059,-1.9066,-1.9055,-1.9043,-1.9041,-1.9014,-1.9031,-1.8992,-1.9016,-1.8989,-1.8992,-1.8984,-1.8986,-1.8985,-1.8942,-1.9006,-1.9111,-1.9121,-1.8986,-1.8985,-1.8984,0,-1.9109,-1.9115,-1.9137,-1.9135,-1.9112,-1.9124,-1.9115,-1.9103,-1.9104,-1.9102,-1.9103,-1.9103,-1.9104,-1.9105,-1.9078,-1.9053,-1.9105,-1.9064,-1.9096,-1.9096,-1.9108,-1.9108,-1.9215,-1.9111,-1.9111,-1.9111,-1.911,0,-1.9189,-1.9213,-1.9173,-1.9186,-1.9212,-1.9178,-1.9205,-1.9192,-1.9181,-1.9192,-1.9156,-1.9167,-1.9131,-1.9139,-1.9119,-1.9141,-1.9142,-1.9132,-1.9127,-1.9135,-1.9136,-1.9136,-1.9131,-1.9113,-1.9113,-1.9112,-1.9112,0,-1.9281,-1.9255,-1.9277,-1.9254,-1.9249,-1.9268,-1.9249,-1.9261,-1.9243,-1.9257,-1.9259,-1.9231,-1.9238,-1.9212,-1.9215,-1.9201,-1.9235,-1.9222,-1.9238,-1.9234,-1.9266,-1.9263,-1.9377,-1.939,-1.9278,-1.9279,-1.928,0,-1.9334,-1.9351,-1.933,-1.9334,-1.9327,-1.9335,-1.9336,-1.9304,-1.9307,-1.9297,-1.931,-1.9314,-1.9315,-1.9329,-1.9309,-1.9311,-1.9298,-1.9337,-1.9298,-1.9306,-1.9298,-1.9297,-1.9298,-1.9346,-1.9347,-1.9348,-1.9349,0,-1.943,-1.9416,-1.9419,-1.9417,-1.942,-1.9417,-1.9412,-1.9418,-1.9384,-1.9389,-1.9396,-1.9397,-1.9399,-1.9404,-1.9402,-1.9393,-1.9366,-1.9362,-1.9369,-1.9378,-1.9386,-1.9382,-1.926,-1.9359,-1.9358,-1.9357,-1.9357,-1.9356,-1.9503,-1.9516,-1.9503,-1.9508,-1.9501,-1.9497,-1.9507,-1.949,-1.9495,-1.9494,-1.9475,-1.9485,-1.9475,-1.9469,-1.9464,-1.9472,-1.9453,-1.9464,-1.9467,-1.947,-1.9475,-1.9386,-1.9471,-1.9471,-1.9471,-1.9471,-1.947,0,-1.9596,-1.9586,-1.959,-1.9584,-1.9588,-1.9561,-1.9555,-1.956,-1.9569,-1.9561,-1.9563,-1.9571,-1.9575,-1.9556,-1.9558,-1.9568,-1.9555,-1.9569,-1.9568,-1.9567,-1.9492,-1.9485,-1.9579,-1.9579,-1.9579,-1.9579,-1.9579,-1.9579,-1.9645,-1.9666,-1.9651,-1.9668,-1.9657,-1.9666,-1.9665,-1.9662,-1.9655,-1.9665,-1.9668,-1.9655,-1.9643,-1.9644,-1.9647,-1.9641,-1.9644,-1.9662,-1.9652,-1.9582,-1.9572,-1.9562,-1.9555,-1.9663,-1.9663,-1.9726,-1.9727,-1.9727]},{"header":{"parameterUnit":"m.s-1","parameterCategory":1,"la1":30.2991,"la2":30.254,"lo1":-89.0895,"lo2":-89.0444,"dy":0.0017,"dx":0.0017,"nx":28,"ny":28,"refTime":"2023-09-24T09:00:00:Z","depth":0,"parameterNumber":3,"parameterNumberName":"V-component_of_WINDS"},"data":[0,0,0,0,0,0,0,0,0,0,0,0,0,0,0,0,0,0,0,0,0,0,0,0,0,0,0,0,0,0,0,0,0,0,0,0,0,0,0,0,0,0,0,0,0,0,0,0,0,0,0,0,0,0,0,0,0,0,-1.1282,-1.1282,0,-1.1257,-1.1256,-1.1256,-1.1244,-1.1244,-1.1244,-1.1244,-1.1217,-1.1216,-1.1216,0,0,0,0,0,0,0,0,0,0,0,0,0,-1.1319,-1.1318,-1.1282,-1.1282,-1.1282,-1.1257,-1.1256,-1.1256,-1.1244,-1.1244,-1.1244,-1.1244,-1.1217,-1.1217,-1.1216,0,0,0,0,0,0,0,0,0,0,0,0,0,-1.1299,-1.1318,-1.1282,-1.1273,-1.1272,-1.1257,-1.1256,-1.1256,-1.1244,-1.1244,-1.1244,-1.1244,-1.1218,-1.1217,-1.1216,-1.1208,0,0,-1.1212,-1.1212,0,0,0,0,0,0,0,0,-1.13,-1.1298,-1.1274,-1.1273,-1.1272,-1.1254,-1.1259,-1.124,-1.1244,-1.1255,-1.1244,-1.1244,-1.1229,-1.1227,-1.1222,-1.1207,-1.1206,-1.1212,-1.1211,-1.1211,-1.1211,0,0,0,0,0,0,0,-1.1301,-1.1299,-1.1272,-1.1274,-1.1273,-1.1269,-1.1266,-1.1256,-1.1242,-1.1254,-1.1253,-1.125,-1.1229,-1.1223,-1.1222,-1.1205,-1.1212,-1.1211,-1.121,-1.121,-1.118,-1.118,0,0,0,0,0,0,-1.1305,-1.13,-1.1273,-1.1271,-1.1286,-1.1268,-1.1265,-1.126,-1.1242,-1.1239,-1.125,-1.1249,-1.1225,-1.1223,-1.1221,-1.1209,-1.1211,-1.121,-1.1209,-1.118,-1.118,-1.118,0,0,0,0,0,0,-1.1305,-1.1302,-1.1274,-1.1285,-1.1281,-1.1268,-1.1261,-1.1259,-1.1254,-1.1239,-1.1237,-1.1247,-1.1225,-1.1222,-1.1211,-1.1208,-1.1209,-1.1208,-1.118,-1.118,-1.118,-1.1187,0,0,0,0,0,0,-1.1306,-1.1303,-1.13,-1.1285,-1.1281,-1.1265,-1.1261,-1.1258,-1.1252,-1.1251,-1.1236,-1.1234,-1.1225,-1.1212,-1.121,-1.1207,-1.1208,-1.118,-1.118,-1.118,-1.1187,-1.1187,-1.1187,0,0,0,0,0,-1.1308,-1.1304,-1.13,-1.1297,-1.1278,-1.1265,-1.1263,-1.1253,-1.1252,-1.1249,-1.1239,-1.1234,-1.1209,-1.1211,-1.1208,-1.1205,-1.118,-1.118,-1.118,-1.1187,-1.1187,-1.1187,0,0,0,0,0,0,-1.1319,-1.1302,-1.1298,-1.1289,-1.1279,-1.1263,-1.126,-1.1254,-1.1244,-1.1243,-1.1232,-1.1228,-1.1217,-1.121,-1.1213,-1.1195,-1.1194,-1.1193,-1.1201,-1.1201,-1.1201,-1.1203,-1.1207,0,0,0,0,0,-1.1321,-1.1312,-1.1297,-1.1291,-1.1286,-1.1274,-1.1268,-1.1261,-1.125,-1.1246,-1.1235,-1.1224,-1.1213,-1.1207,-1.1196,-1.1186,-1.1181,-1.1182,-1.1182,-1.1182,-1.1181,-1.1173,-1.1172,-1.1179,-1.1179,-1.1179,0,0,-1.1323,-1.1313,-1.1309,-1.1293,-1.1284,-1.1275,-1.127,-1.1261,-1.1254,-1.1244,-1.1232,-1.1224,-1.1211,-1.12,-1.1194,-1.1193,-1.1178,-1.1182,-1.1182,-1.1181,-1.1173,-1.1172,-1.1171,-1.1178,-1.1179,-1.1179,0,0,-1.1324,-1.1316,-1.1309,-1.13,-1.1286,-1.1278,-1.1276,-1.1261,-1.1255,-1.1243,-1.1235,-1.1226,-1.1209,-1.1199,-1.1191,-1.1186,-1.118,-1.1183,-1.1183,-1.1176,-1.1175,-1.1175,-1.1171,-1.117,-1.1182,-1.1182,-1.1182,0,-1.1329,-1.1316,-1.1306,-1.1297,-1.1289,-1.128,-1.1271,-1.1263,-1.1247,-1.1242,-1.1241,-1.1217,-1.1208,-1.1193,-1.1191,-1.1186,-1.1182,-1.1185,-1.1176,-1.1175,-1.1175,-1.1171,-1.117,-1.1182,-1.1182,-1.1182,-1.1182,0,-1.1322,-1.1313,-1.1308,-1.1293,-1.1285,-1.1276,-1.1264,-1.1257,-1.125,-1.1241,-1.1228,-1.1216,-1.1202,-1.1198,-1.1192,-1.1182,-1.1181,-1.1179,-1.1177,-1.1175,-1.1171,-1.117,-1.1183,-1.1183,-1.1183,-1.1183,0,0,-1.133,-1.1307,-1.1306,-1.1298,-1.1282,-1.1274,-1.1264,-1.125,-1.1244,-1.1232,-1.1223,-1.1207,-1.1204,-1.1195,-1.1188,-1.1181,-1.1175,-1.1178,-1.1178,-1.1177,-1.1161,-1.1162,-1.1161,-1.1171,-1.1171,-1.1171,-1.1161,0,-1.1327,-1.131,-1.13,-1.1286,-1.1276,-1.1266,-1.1257,-1.1245,-1.1236,-1.1226,-1.1216,-1.1204,-1.1201,-1.1196,-1.1189,-1.1177,-1.1171,-1.1178,-1.1161,-1.116,-1.1164,-1.1159,-1.1162,-1.1153,-1.116,-1.116,-1.116,0,-1.1322,-1.1311,-1.1296,-1.1279,-1.1274,-1.1267,-1.1252,-1.1243,-1.1229,-1.1222,-1.1212,-1.1204,-1.1192,-1.1191,-1.1173,-1.1178,-1.117,-1.1163,-1.1162,-1.116,-1.1159,-1.1156,-1.1151,-1.1149,-1.1158,-1.1158,-1.1158,0,-1.1328,-1.1308,-1.1297,-1.129,-1.127,-1.1265,-1.1256,-1.1242,-1.1234,-1.1221,-1.1215,-1.1201,-1.1193,-1.1181,-1.1169,-1.117,-1.1151,-1.115,-1.1144,-1.1145,-1.1141,-1.1141,-1.1133,-1.1137,-1.1137,-1.1137,-1.1137,0,-1.1325,-1.1317,-1.1299,-1.1291,-1.128,-1.1268,-1.1257,-1.1247,-1.1235,-1.1224,-1.1214,-1.1205,-1.119,-1.1177,-1.1168,-1.1153,-1.115,-1.1143,-1.1141,-1.1144,-1.1144,-1.1138,-1.1138,-1.1137,-1.1137,-1.1137,-1.1137,0,-1.133,-1.1318,-1.1304,-1.1286,-1.1281,-1.1273,-1.1257,-1.1249,-1.1239,-1.1226,-1.1222,-1.1206,-1.1191,-1.1177,-1.1158,-1.1151,-1.1135,-1.1133,-1.114,-1.1139,-1.1133,-1.1133,-1.1121,-1.1118,-1.1125,-1.1125,-1.1125,0,-1.1329,-1.1322,-1.1303,-1.1295,-1.1286,-1.1275,-1.1266,-1.1252,-1.1243,-1.1225,-1.1219,-1.1203,-1.119,-1.1166,-1.1152,-1.1136,-1.1132,-1.1129,-1.113,-1.1132,-1.113,-1.113,-1.1129,-1.1129,-1.1129,-1.1129,-1.1129,0,-1.1328,-1.1322,-1.131,-1.1295,-1.1285,-1.1272,-1.126,-1.1254,-1.1238,-1.1228,-1.1212,-1.1202,-1.1181,-1.1165,-1.1147,-1.1137,-1.1129,-1.1128,-1.1126,-1.1129,-1.1133,-1.1129,-1.1139,-1.1129,-1.1129,-1.1129,-1.1129,-1.1129,-1.1329,-1.1321,-1.1306,-1.1292,-1.1281,-1.1269,-1.126,-1.1248,-1.1235,-1.1217,-1.121,-1.1193,-1.1177,-1.1152,-1.1142,-1.1128,-1.1127,-1.1124,-1.1123,-1.1122,-1.1122,-1.1135,-1.1125,-1.1125,-1.1125,-1.1125,-1.1125,0,-1.1327,-1.1316,-1.1303,-1.1285,-1.1274,-1.1268,-1.1253,-1.1244,-1.123,-1.1215,-1.1202,-1.1183,-1.1166,-1.115,-1.1133,-1.1125,-1.112,-1.112,-1.112,-1.1118,-1.1125,-1.1128,-1.1124,-1.1124,-1.1124,-1.1124,-1.1124,-1.1124,-1.1324,-1.131,-1.1302,-1.1281,-1.127,-1.1255,-1.1246,-1.1234,-1.1222,-1.1202,-1.1188,-1.1178,-1.1162,-1.1143,-1.1127,-1.1122,-1.1116,-1.1116,-1.111,-1.1117,-1.1117,-1.1118,-1.1121,-1.1115,-1.1115,-1.1104,-1.1104,-1.1104]}]]